Regional Weather Roundup
Issued by NWS

Home | Current Version | Previous Version | Graphics & Text | Print | Product List | Glossary On
Versions: 1 2 3 4 5 6 7 8 9 10 11 12 13 14 15 16 17 18 19 20 21 22 23 24 25 26 27 28 29 30 31 32 33 34 35 36 37 38 39 40 41 42 43 44 45 46 47 48 49 50
000
ASUS43 KIND 241209
RWRIN

WEATHER ROUNDUP FOR INDIANA
NATIONAL WEATHER SERVICE INDIANAPOLIS IN
800 AM EDT SUN JUL 24 2016

NOTE: "FAIR" INDICATES FEW OR NO CLOUDS BELOW 12,000 FEET WITH NO
SIGNIFICANT WEATHER AND/OR OBSTRUCTIONS TO VISIBILITY.

* - STATION DOES NOT REPORT WEATHER SUCH AS PRECIPITATION OR FOG.

+ - STATION NOT QUALITY CONTROLLED BY THE NATIONAL WEATHER SERVICE.
    USE DATA WITH CAUTION...ESPECIALLY DEWPOINT AND RELATIVE
    HUMIDITY OBSERVATIONS.

INZ001>003-010>013-019-020-241300-
NORTHWEST INDIANA

CITY           SKY/WX    TMP DP  RH WIND       PRES   REMARKS
GARY /AIRPORT/ PTSUNNY   72 N/A N/A S7        29.94R
KNOX *+        PTSUNNY   70  68  94 S5        29.96R
LA PORTE +     MOSUNNY  N/A N/A N/A N3        29.97R
                                      6HR PCP:  0.18;

MICHIGAN CITY+ SUNNY     72  72 100 S5        29.96R
MONTICELLO +   CLOUDY    72  66  82 S6        29.97S
6HR MIN TEMP:  70; 6HR MAX TEMP:  76; 6HR PCP:  0.01;

RENSSELAER +   MOSUNNY   72  70  94 CALM      29.97R
VALPARAISO     CLOUDY    71  70  96 S5        29.96S
6HR MIN TEMP:  70; 6HR MAX TEMP:  71; 6HR PCP:  0.20;


$$

LMZ046-743>745-241300-
SOUTHERN LAKE MICHIGAN

STATION/POSITION TIME  TEMP    WIND        PRES    WAVE
                       AIR SEA DIR/SP/G            HT
                 (UTC) (F)     (DEG/KT/KT) (MB)    (FT)
BURNS HARBOR     1104   72     180/  7/ 11 1013.9S
MICHIGAN CITY    1100   73     140/ 10/ 13   N/A
5NW MICH CITY    1100   73 73  180/ 10/ 14   N/A     1

$$

INZ004-005-014>016-021>024-241300-
NORTH CENTRAL INDIANA

CITY           SKY/WX    TMP DP  RH WIND       PRES   REMARKS
ELKHART        CLOUDY    72  72 100 CALM      29.97
GOSHEN         CLOUDY    72  68  87 CALM      29.96R
6HR MIN TEMP:  71; 6HR MAX TEMP:  78; 6HR PCP:  0.18;

PERU/GRISSOM   CLOUDY    71  71 100 S7        29.97R
6HR MIN TEMP:  71; 6HR MAX TEMP:  79; 6HR PCP:  0.07;

ROCHESTER +    CLOUDY    73  72  94 S5        29.98R
SOUTH BEND     MOSUNNY   70  70 100 S3        29.96R
6HR MIN TEMP:  70; 6HR MAX TEMP:  70; 6HR PCP:  0.36;

WARSAW +       CLOUDY    70  70 100 CALM      29.97R

$$

INZ006>009-017-018-025>027-241300-
NORTHEAST INDIANA

CITY           SKY/WX    TMP DP  RH WIND       PRES   REMARKS
ANGOLA *+        N/A     72  63  73 E9        29.93F
AUBURN +       CLOUDY    72  68  88 S3        29.98R
FORT WAYNE     CLOUDY    72  70  93 SW7       29.98R
6HR MIN TEMP:  71; 6HR MAX TEMP:  78; 6HR PCP:  0.02;

HUNTINGTON +   CLOUDY   N/A N/A N/A SW3       29.99R

$$

INZ028-029-035-036-043>045-051>053-241300-
WEST CENTRAL INDIANA

CITY           SKY/WX    TMP DP  RH WIND       PRES   REMARKS
CRAWFORDSVL +  CLOUDY    71  71 100 SE3       29.99S
6HR MIN TEMP:  69; 6HR MAX TEMP:  73;

GREENCASTLE +  MOSUNNY   73  73 100 SE3       30.00R
LAFAYETTE      CLOUDY    72  69  90 SE3       29.97S
6HR MIN TEMP:  69; 6HR MAX TEMP:  77;

TERRE HAUTE    MOSUNNY   77  74  90 SE3       29.98R FOG
6HR MIN TEMP:  75; 6HR MAX TEMP:  77;


$$

INZ030>032-037>040-046>048-054>057-064-065-241300-
CENTRAL INDIANA

CITY           SKY/WX    TMP DP  RH WIND       PRES   REMARKS
FRANKFORT +    CLOUDY   N/A N/A N/A S3        30.01S
INDIANAPOLIS   CLOUDY    77  68  73 E8        30.00R
6HR MIN TEMP:  77; 6HR MAX TEMP:  79;

-EAGLE CREEK   PTSUNNY   77  68  73 E7        29.99S
6HR MIN TEMP:  76; 6HR MAX TEMP:  80;

KOKOMO *+      CLOUDY    72  66  83 S7        29.99S
6HR MIN TEMP:  70; 6HR MAX TEMP:  79; 6HR PCP:  0.07;

MARION +       PTSUNNY   71  69  92 S3        30.00R
MT COMFORT *+  CLOUDY    73  70  88 CALM      30.00F
SHELBYVILLE    CLOUDY    78  72  81 E5        29.99S
6HR MIN TEMP:  74; 6HR MAX TEMP:  78;

ZIONSVILLE +   CLOUDY    73  69  87 CALM      30.00F
6HR MIN TEMP:  70; 6HR MAX TEMP:  75;


$$

INZ033-034-041-042-049-050-058-059-241300-
EAST CENTRAL INDIANA

CITY           SKY/WX    TMP DP  RH WIND       PRES   REMARKS
MUNCIE         CLOUDY    77  70  79 S3        30.00S
6HR MIN TEMP:  72; 6HR MAX TEMP:  81;


$$

INZ060-061-067>069-081>083-085>088-241300-
SOUTHWEST INDIANA

CITY           SKY/WX    TMP DP  RH WIND       PRES   REMARKS
EVANSVILLE     SUNNY     78  75  90 CALM      29.98R
6HR MIN TEMP:  76; 6HR MAX TEMP:  79;

HUNTINGBURG *+ SUNNY     77  73  88 S3        29.99R
6HR MIN TEMP:  75; 6HR MAX TEMP:  77;

WASHINGTON +     N/A     75  75 100 MISG      29.97S FOG
6HR MIN TEMP:  73; 6HR MAX TEMP:  75;


$$

INZ062-063-066-070>080-084-089>092-241300-
SOUTH CENTRAL AND SOUTHEAST INDIANA

CITY           SKY/WX    TMP DP  RH WIND       PRES   REMARKS
BLOOMINGTON    CLOUDY    77  75  93 SE5       30.00R FOG
6HR MIN TEMP:  72; 6HR MAX TEMP:  77;

MADISON *+     MOSUNNY   75  73  94 CALM      30.03R
SEYMOUR +      MOSUNNY   75  75 100 CALM      29.99S FOG

$$





USA.gov is the U.S. government's official web portal to all federal, state and local government web resources and services.